Theta_e
313 314 314 314 314 313 314 315 316 316 316 316 315 315 315 315 314 315 315 315 314 315 314 314 314 316 315 306 306 318 339 337 326 317 314 313 313 317 313 315 316 314 315 316 317 316 315
310 310 311 311 311 312 313 312 313 314 314 315 316 316 316 315 315 315 315 314 315 315 314 314 315 316 311 300 313 316 318 324 319 315 313 314 313 316 313 313 313 316 316 315 316 315 315
309 309 309 309 309 309 310 311 312 312 313 313 314 315 316 315 315 315 315 314 314 314 314 314 315 314 307 304 315 317 317 316 322 319 313 315 316 314 315 312 317 315 311 312 313 314 312
310 310 310 310 309 309 309 309 309 310 311 312 313 313 314 315 316 315 315 314 314 314 314 315 315 311 302 313 316 313 314 314 315 317 318 320 319 314 312 315 313 309 310 304 311 313 314
312 312 312 311 311 310 310 310 309 308 309 310 312 312 313 312 313 315 314 314 314 314 315 315 310 306 300 316 310 314 316 311 316 318 319 318 315 312 310 306 305 307 302 304 307 313 312
311 311 312 312 312 312 312 311 311 310 309 308 309 312 312 312 312 313 313 314 314 315 314 315 310 304 310 308 311 314 315 314 310 312 310 311 310 307 307 304 297 301 302 304 305 310 312
311 311 311 312 312 312 312 312 312 311 311 310 308 310 312 312 312 312 310 310 307 308 307 306 306 303 308 315 317 311 315 311 310 308 302 307 304 301 304 307 306 306 305 304 309 312 310
309 310 310 310 310 311 312 312 312 312 312 311 310 308 309 311 311 312 309 304 307 309 301 309 310 308 310 312 306 309 314 307 305 300 304 302 302 306 308 308 305 305 304 304 308 311 310
308 309 309 309 310 310 311 311 312 312 312 312 311 309 308 309 311 308 305 305 313 313 300 303 308 310 310 311 306 307 309 308 304 300 301 299 302 308 307 306 304 305 304 305 305 309 310
307 308 308 309 309 310 310 311 311 311 312 312 312 310 308 309 305 309 308 312 315 312 293 296 301 305 309 312 305 312 313 308 305 300 301 301 305 306 305 304 306 302 308 308 307 304 299
306 307 308 308 309 309 310 310 310 310 311 311 311 311 309 307 305 303 309 313 312 308 284 303 303 313 309 306 307 307 313 309 303 302 302 300 303 303 305 305 308 305 310 308 307 305 303
307 307 307 308 309 309 309 309 310 310 310 310 311 311 310 305 305 306 309 313 308 291 283 299 307 304 303 305 306 309 308 310 309 304 305 302 308 307 307 310 310 310 308 308 307 304 297
306 306 307 308 308 308 309 309 309 310 310 310 310 310 309 308 300 309 310 305 290 284 298 298 302 304 302 301 302 304 303 301 300 297 298 302 302 307 310 306 310 308 306 297 295 294 294
307 307 307 308 308 308 308 309 309 309 309 310 310 309 309 309 307 307 304 295 283 290 292 304 304 304 300 303 302 302 301 299 304 302 299 297 295 303 308 307 305 306 306 298 290 292 295
305 306 306 307 307 308 308 308 308 308 309 309 307 307 306 309 308 305 296 283 286 291 297 296 299 297 300 303 303 302 302 301 303 305 299 298 298 307 308 310 309 306 302 307 300 301 296
305 305 305 307 307 308 308 309 309 309 309 308 306 303 302 309 308 302 290 285 290 295 296 296 291 297 294 300 300 301 301 305 303 306 309 305 299 306 307 311 311 309 309 300 300 292 291
305 305 306 307 307 308 308 309 309 309 308 308 304 293 303 309 308 295 285 287 291 296 296 292 292 293 295 294 299 301 301 304 306 305 308 308 307 304 307 306 304 305 304 304 304 301 295
305 305 306 307 307 307 308 308 308 308 307 305 297 288 306 307 291 289 287 292 294 293 296 294 294 294 294 296 296 297 301 305 308 308 304 308 307 301 303 309 311 309 306 306 299 298 301
305 305 306 306 307 307 307 308 308 307 305 303 295 297 308 303 286 286 292 291 292 292 293 292 292 295 297 295 293 300 303 308 309 308 306 308 303 299 301 306 309 306 307 308 308 308 302
305 305 306 306 307 307 308 308 308 307 306 304 297 288 298 301 297 291 289 289 289 296 294 293 293 295 294 293 297 297 301 307 309 309 311 312 306 302 299 303 307 304 305 306 305 301 300
304 305 306 307 307 308 308 308 307 307 306 301 298 292 295 288 290 290 289 290 287 287 295 295 293 293 292 291 293 297 299 298 304 310 311 311 301 306 305 306 306 305 304 304 303 305 300
305 306 306 307 307 308 308 308 307 307 306 299 292 293 295 294 293 289 290 289 288 290 292 291 291 293 294 291 293 293 295 298 298 301 308 313 302 306 302 305 306 303 305 305 305 304 304
305 306 306 307 307 307 308 308 308 307 305 297 302 301 295 291 291 289 290 290 290 292 294 295 294 292 291 293 297 299 301 301 302 300 302 310 305 303 300 304 303 300 304 305 306 307 306
305 306 306 307 307 307 308 308 308 307 306 302 301 301 291 287 291 288 291 291 291 292 291 294 295 294 296 301 300 301 299 300 302 304 308 307 307 305 300 303 293 304 311 309 307 308 309
305 306 306 306 307 307 308 308 308 306 305 303 302 297 292 288 291 291 291 292 293 294 293 294 296 298 302 299 293 291 294 298 300 304 306 310 309 302 299 298 301 303 307 307 307 307 312
305 305 306 306 307 307 308 308 308 307 305 303 306 304 296 290 291 294 292 293 291 291 293 295 300 302 302 297 291 285 287 294 295 300 307 309 311 304 301 295 293 304 309 311 311 302 314
305 305 306 306 306 307 307 308 307 307 307 306 305 308 297 291 295 297 292 292 294 293 291 296 297 297 301 294 289 286 287 296 292 295 298 301 303 300 299 299 300 309 311 313 300 304 315
306 306 306 306 306 306 307 308 308 307 307 305 306 309 301 294 295 298 299 295 296 295 289 293 296 297 295 291 291 290 288 291 294 297 297 299 298 300 301 298 294 311 310 305 316 326 321
306 306 306 306 306 306 307 307 308 307 307 306 303 310 309 297 297 303 302 303 301 299 295 297 294 297 296 294 294 294 291 292 291 291 303 294 303 301 303 303 319 317 319 323 323 321 318
Wind_Speed
18 18 17 17 15 14 14 14 14 13 14 14 15 16 15 14 14 15 15 16 17 17 17 17 16 15 11 12 16 14 10 8 11 16 23 24 27 26 27 25 24 28 26 25 19 14 23
16 16 16 17 17 17 16 15 15 15 15 15 16 16 16 16 15 14 15 16 16 16 17 18 16 16 8 21 15 19 18 12 12 18 22 23 24 24 26 26 27 24 25 22 17 25 23
17 17 17 16 17 18 18 17 17 17 15 14 14 16 17 16 16 17 17 16 17 19 21 20 15 10 14 25 13 18 19 22 18 20 20 21 23 27 23 28 25 24 26 23 22 18 22
16 16 16 16 16 16 17 18 19 18 18 17 15 14 15 16 17 17 19 19 20 21 23 21 15 10 14 12 22 30 29 24 19 22 19 15 19 24 26 23 24 24 26 22 22 22 25
16 16 16 15 16 16 16 17 18 18 19 19 17 17 16 17 18 18 19 20 24 26 23 17 8 10 18 12 24 30 25 25 19 18 14 17 21 20 20 21 21 21 18 26 24 23 24
19 19 19 18 17 15 15 17 17 18 18 19 18 17 16 17 18 17 18 22 27 18 12 11 13 12 19 22 22 24 26 25 21 18 19 21 18 19 19 18 22 19 23 22 23 23 22
21 21 21 20 20 18 18 19 18 18 18 18 18 17 17 17 16 15 15 13 8 9 13 16 16 19 12 15 21 24 19 24 23 21 22 21 16 23 25 27 26 25 23 24 23 17 8
20 20 21 21 22 20 19 19 19 19 19 18 17 18 18 18 17 16 12 11 19 16 13 28 33 28 27 21 13 15 15 23 27 27 22 23 26 27 27 24 28 27 26 23 20 18 15
22 21 21 21 21 20 21 20 20 19 18 17 15 15 18 18 17 14 16 24 22 26 13 23 29 34 31 28 26 21 24 23 24 27 27 27 26 27 28 25 26 26 25 21 23 17 16
22 22 22 21 20 20 22 21 21 20 19 18 16 12 14 15 12 10 16 18 19 10 10 17 26 28 34 28 36 28 24 24 22 28 30 31 26 28 29 27 26 25 25 25 18 15 13
23 22 22 21 21 21 21 22 21 21 20 19 17 15 12 9 15 12 15 18 9 4 10 9 34 12 22 35 10 34 31 28 27 27 24 30 29 29 28 28 27 22 23 20 14 15 15
24 24 23 22 22 22 22 21 21 21 20 19 17 14 11 11 13 15 16 15 5 9 17 11 11 26 25 31 35 9 36 30 26 25 28 28 24 30 31 26 26 25 22 13 12 12 13
25 25 24 23 23 24 23 22 21 20 19 19 18 15 13 11 14 10 9 8 9 17 10 12 21 25 25 28 32 32 32 32 27 27 29 26 32 30 29 29 23 24 14 11 11 12 11
24 23 23 24 25 25 25 23 22 21 19 18 15 12 11 13 13 9 4 7 18 21 36 10 19 24 26 24 29 35 27 27 31 31 14 23 24 34 27 30 25 22 17 12 15 11 17
25 23 23 25 25 25 25 24 22 20 18 13 10 9 9 12 14 5 4 13 22 27 18 29 30 30 24 25 22 31 35 30 31 32 26 22 29 23 32 23 24 21 23 17 18 17 12
24 24 24 24 25 25 26 23 21 20 17 9 6 4 10 14 15 3 6 17 24 30 37 34 30 21 20 19 28 32 31 30 31 33 25 23 18 28 30 25 23 23 19 17 13 16 15
23 24 23 24 25 25 25 23 19 20 17 6 5 2 9 16 5 4 9 21 26 29 33 30 29 28 26 26 26 29 31 30 32 32 31 26 16 20 24 27 22 19 20 18 13 15 12
22 23 23 24 24 24 23 21 18 17 6 4 2 3 4 12 7 3 10 19 20 27 30 28 25 25 27 25 23 19 27 32 28 30 34 32 11 16 25 26 26 23 23 17 11 16 10
22 23 23 24 24 23 22 22 17 8 10 2 4 6 2 4 5 8 15 22 25 26 27 27 22 23 25 25 14 15 23 28 34 32 30 26 20 13 19 22 24 23 23 20 14 9 14
23 23 23 24 24 23 23 21 14 8 11 6 4 4 3 6 2 10 16 21 20 19 27 22 20 24 22 23 21 18 23 17 28 30 33 22 19 22 16 17 22 27 24 23 19 14 14
24 24 24 24 24 24 23 18 10 8 7 4 4 5 5 5 7 8 12 20 22 19 25 16 22 20 20 21 24 18 17 21 25 23 25 22 27 21 24 24 27 26 26 25 24 19 19
23 24 24 24 25 26 22 15 9 6 5 5 3 4 5 9 11 13 13 12 21 20 17 19 17 19 18 21 21 20 23 20 14 21 16 20 23 22 24 27 24 28 27 26 25 23 22
22 23 24 24 24 25 19 15 13 9 10 4 3 4 6 7 9 10 10 9 7 14 16 14 16 17 16 20 19 20 21 21 25 22 24 16 20 23 20 23 25 24 27 26 20 21 22
22 23 23 24 24 24 24 16 13 12 10 1 3 3 3 9 8 3 13 7 16 17 16 17 16 18 16 18 11 22 24 27 26 24 21 15 22 17 17 19 28 14 19 22 21 18 19
22 22 23 23 24 23 22 19 15 7 5 5 1 2 2 6 13 16 12 14 13 14 17 19 17 21 12 8 9 13 14 17 22 21 20 19 16 11 16 17 14 24 23 23 20 20 19
23 23 22 23 23 23 23 21 13 8 8 8 5 4 1 5 5 16 15 15 11 14 17 21 18 17 2 9 2 4 6 7 10 10 17 16 15 12 18 20 24 15 23 18 13 16 17
21 22 23 22 23 24 23 22 11 11 9 7 3 4 3 4 12 11 10 10 8 10 9 16 15 9 16 8 4 5 6 11 8 19 14 15 15 17 13 10 13 20 17 19 19 7 14
21 21 21 21 21 23 22 20 16 12 8 3 6 5 4 4 16 19 13 9 10 6 3 10 9 8 6 8 6 6 6 8 10 16 11 15 15 13 15 15 13 14 18 22 7 5 6
22 21 21 21 21 21 21 17 15 11 8 7 5 5 3 4 12 19 17 12 13 15 3 5 7 9 6 6 2 3 7 1 10 6 12 9 5 10 9 10 5 10 8 8 10 8 9
Wind_Direction
5 5 358 351 346 343 338 341 333 325 320 299 293 300 300 298 306 313 314 313 313 316 314 315 322 333 318 235 241 259 130 136 173 204 219 225 233 222 239 239 241 253 257 259 273 289 265
357 353 348 346 347 350 344 333 330 328 328 324 311 297 293 292 294 298 301 304 306 303 302 308 320 319 244 256 255 264 251 180 186 205 221 224 237 242 243 247 253 254 259 267 266 255 263
354 352 349 345 340 336 334 338 336 327 321 317 319 316 302 295 297 297 299 301 302 302 306 308 309 291 259 246 275 279 273 213 216 197 218 222 232 249 252 249 256 264 265 270 258 258 257
352 349 347 342 340 338 333 327 323 323 327 318 315 315 320 314 303 301 301 302 299 296 297 294 289 270 256 260 240 255 266 273 229 238 239 247 230 243 257 271 261 256 260 258 260 253 252
349 344 336 330 329 328 325 325 324 322 316 317 320 314 312 312 308 302 299 297 290 286 285 276 255 216 263 247 230 240 241 235 239 220 234 235 235 239 238 247 256 245 251 253 258 249 252
353 350 345 341 334 326 320 315 314 313 315 313 311 316 309 308 307 302 302 290 277 284 242 218 248 227 242 245 237 225 223 229 229 236 236 243 226 235 223 223 232 235 239 237 252 260 263
350 347 344 340 340 337 330 325 316 307 304 306 308 305 315 310 306 308 309 300 218 198 224 213 197 213 267 214 229 218 210 214 228 231 225 225 223 224 224 223 237 243 249 245 251 255 217
348 345 342 340 338 333 326 323 318 315 304 299 300 306 304 308 309 304 290 262 264 329 285 228 252 235 246 275 253 228 206 206 208 221 217 216 222 224 230 225 230 242 251 260 274 285 292
344 342 340 338 332 328 327 324 321 317 312 299 287 293 300 305 307 282 249 253 270 285 276 264 238 235 237 236 241 231 212 207 210 211 214 220 223 222 234 224 229 233 242 253 261 275 276
338 337 337 334 329 325 323 320 317 313 311 307 290 282 290 306 290 268 263 242 232 259 273 253 216 240 223 223 241 228 220 210 216 213 216 228 224 222 225 230 221 232 231 239 252 274 274
337 334 333 330 328 326 324 321 316 314 311 303 294 275 276 265 307 291 345 332 338 204 264 233 213 185 194 199 176 210 215 205 211 210 211 224 220 228 219 221 232 232 238 242 236 246 257
335 334 332 330 330 328 324 321 315 311 307 306 295 278 262 258 238 273 284 304 270 227 235 242 226 185 192 199 215 220 196 221 213 221 226 230 230 226 232 229 219 234 237 246 255 263 254
334 333 331 329 330 330 326 323 319 312 306 301 293 277 244 260 267 279 323 272 215 229 238 253 183 173 196 194 208 226 189 200 208 209 224 219 227 231 232 228 219 222 218 223 223 235 253
332 332 330 330 331 328 325 323 320 317 310 297 292 267 238 246 254 265 289 241 227 229 240 278 215 184 199 212 200 211 186 202 209 207 207 219 218 221 215 229 219 202 207 228 223 225 243
332 331 330 332 328 326 324 322 320 317 314 299 296 263 251 234 240 220 217 224 227 246 274 242 289 283 200 215 212 203 220 201 202 205 214 206 227 208 227 208 221 197 213 215 254 268 288
334 333 333 330 329 327 326 322 318 316 314 295 284 273 244 227 225 136 215 237 249 250 265 289 294 320 313 237 223 193 202 215 207 205 217 234 214 226 207 212 206 223 192 207 228 243 266
334 333 334 331 330 329 330 328 322 318 309 283 272 283 259 218 178 182 223 221 238 257 277 287 280 297 307 302 295 211 209 221 201 204 213 227 246 210 206 204 194 204 229 199 226 221 231
336 337 334 332 332 332 331 330 326 329 333 157 111 253 354 164 175 247 243 244 267 273 282 290 292 288 287 301 306 298 220 215 205 208 201 216 225 241 210 200 199 208 216 204 212 219 257
340 337 335 333 331 330 330 326 323 313 226 279 271 276 94 30 208 234 252 254 257 265 272 267 280 270 284 307 305 288 265 221 219 193 207 202 224 233 234 204 184 211 217 218 218 214 211
340 337 336 333 331 330 329 326 323 297 249 303 297 300 181 203 238 282 271 273 284 296 281 261 268 271 274 275 276 278 291 292 207 218 203 186 223 222 223 205 177 194 214 215 213 219 220
340 340 338 335 335 334 333 329 323 293 251 286 249 262 311 287 273 295 320 280 276 285 292 236 259 268 265 275 281 273 340 341 319 250 191 186 212 223 229 235 194 195 204 221 216 211 222
340 340 340 338 339 339 333 336 341 282 250 253 288 307 334 291 280 277 255 274 270 274 284 298 291 244 252 265 273 313 322 325 289 338 220 186 209 220 217 230 233 202 201 213 225 213 212
340 342 341 340 343 345 347 338 332 317 194 244 265 279 303 289 291 296 264 282 291 306 291 251 264 277 288 283 284 293 304 291 286 288 296 194 196 199 224 216 238 215 199 202 217 226 208
341 342 343 342 343 343 343 332 327 325 227 179 289 329 258 280 298 209 282 252 271 277 290 296 290 282 274 325 340 286 276 276 275 262 257 274 195 194 216 218 226 230 197 207 216 223 223
341 341 341 341 342 343 343 345 336 337 175 212 17 282 311 295 314 303 6 289 298 288 264 281 284 278 291 308 295 312 282 252 254 245 252 257 184 194 209 218 224 213 229 200 203 210 211
339 339 338 340 341 343 343 344 344 352 218 250 274 258 270 290 283 320 317 321 321 303 295 290 277 254 273 257 89 278 302 278 216 219 235 248 178 210 183 219 224 211 207 224 211 220 200
333 334 335 338 340 342 345 349 358 339 334 235 267 305 215 270 280 320 317 303 319 313 287 287 335 217 212 248 153 248 271 283 291 211 206 227 188 205 225 228 216 215 208 197 209 232 195
330 329 330 333 335 339 343 348 353 353 360 297 290 242 247 271 287 277 280 281 281 314 323 318 306 240 239 238 195 185 251 354 303 302 312 228 178 207 211 228 218 231 217 217 151 232 234
329 326 325 328 331 334 336 341 346 345 347 320 294 312 251 230 278 290 283 273 238 266 230 274 354 344 17 290 215 307 241 138 341 300 254 292 173 231 228 216 253 247 288 138 147 219 235